Skip Page Navigation
NASA JPL Caltech
NASA Logo - Jet Propulsion Laboratory + View the NASA Portal
+ Center for Near-Earth Object Studies
JPL Home Earth Solar System Stars & Galaxies Technology
JPL Solar System Dynamics
BODIES ORBITS EPHEMERIDES TOOLS PHYSICAL DATA DISCOVERY FAQ SITE MAP
IMPORTANT: The SSD Announcement email list is now available. Major changes are coming in the near future, including possible hostname and/or URL changes. To be notified of such changes, subscribe to this email list.

Please visit this page for more details.


JPL Small-Body Database Browser
Search: [ help ]  
85473 (1997 LV5)
Classification: Main-belt Asteroid          SPK-ID: 2085473
Ephemeris | Orbit Diagram | Orbital Elements | Mission Design | Physical Parameters | Discovery Circumstances ]

[ show orbit diagram ]
Orbital Elements at Epoch 2458600.5 (2019-Apr-27.0) TDB
Reference: JPL 13 (heliocentric ecliptic J2000)
 Element Value Uncertainty (1-sigma)   Units 
e .2012579481364659 5.9171e-08  
a 2.448728015093235 2.0988e-08 au
q 1.95590203923129 1.4782e-07 au
i .4674874540528237 5.6159e-06 deg
node 285.974020756461 0.00091067 deg
peri 45.49189373352709 0.00091095 deg
M 222.5216469357851 3.3339e-05 deg
tp 2459134.991830718742
(2020-Oct-12.49183072)
0.00013561 TDB
period 1399.61713804406
3.83
1.7995e-05
4.927e-08
d
yr
n .257213197962904 3.3069e-09 deg/d
Q 2.941553990955181 2.5213e-08 au
  Orbit Determination Parameters
   # obs. used (total)      342  
   data-arc span      7987 days (21.87 yr)  
   first obs. used      1997-06-12  
   last obs. used      2019-04-25  
   planetary ephem.      DE431  
   SB-pert. ephem.      SB431-N16  
   condition code      0  
   norm. resid. RMS      .58861  
   source      ORB  
   producer      Otto Matic  
   solution date      2019-Jul-13 07:08:00  

Additional Information
 Earth MOID = .944394 au 
 Jupiter MOID = 2.41675 au 
 T_jup = 3.469 
[ show covariance matrix ]

Ephemeris | Orbit Diagram | Orbital Elements | Mission Design | Physical Parameters | Discovery Circumstances ]

Physical Parameter Table
Parameter Symbol Value Units Sigma Reference Notes
absolute magnitude H 16.7   n/a MPO233901  

85473 (1997 LV5)          Discovered 1997-Jun-12 by Offutt, W. at Cloudcroft
Reference: 20040830/Numbers.arcLast Updated: 2004-09-06

Alternate Designations
 1997 LV5 = 2001 QB159 
Ephemeris | Orbit Diagram | Orbital Elements | Mission Design | Physical Parameters | Discovery Circumstances ]
ABOUT SSD CREDITS/AWARDS PRIVACY/COPYRIGHT GLOSSARY LINKS
FirstGov
(server date/time)  
NASA Home Page
Site Manager:   Ryan S. Park
Webmaster  Alan B. Chamberlin